| time (UTC) | temp F | wind direction | speed MPH | gust MPH | rain 1hr in | rain 24hr in | rain mn in | humidity % | barometer mb |
| 20260506220302 | 50 | 72 | 1.0 | 6.0 | 0.00 | 1.13 | 0.38 | 62 | 1013.0 |
| 20260506220123 | 50 | 80 | 1.0 | 6.0 | 0.00 | 1.13 | 0.38 | 62 | 1012.9 |
| 20260506215603 | 50 | 85 | 1.0 | 3.0 | 0.00 | 1.13 | 0.38 | 62 | 1012.9 |
| 20260506215502 | 50 | 82 | 1.0 | 3.0 | 0.00 | 1.14 | 0.38 | 61 | 1012.8 |
| 20260506215402 | 50 | 86 | 1.0 | 3.0 | 0.00 | 1.14 | 0.38 | 61 | 1012.9 |
| 20260506215305 | 50 | 84 | 1.0 | 3.0 | 0.00 | 1.15 | 0.38 | 60 | 1013.0 |
| 20260506215202 | 51 | 78 | 1.0 | 4.0 | 0.00 | 1.15 | 0.38 | 61 | 1013.0 |
| 20260506214902 | 50 | 68 | 1.0 | 4.0 | 0.00 | 1.15 | 0.38 | 61 | 1012.9 |
| 20260506214802 | 50 | 65 | 2.0 | 4.0 | 0.00 | 1.15 | 0.38 | 59 | 1012.8 |
| 20260506214602 | 51 | 68 | 2.0 | 4.0 | 0.00 | 1.16 | 0.38 | 61 | 1012.8 |
| 20260506214103 | 51 | 65 | 2.0 | 4.0 | 0.00 | 1.16 | 0.38 | 60 | 1012.5 |
| 20260506214002 | 51 | 66 | 2.0 | 4.0 | 0.00 | 1.16 | 0.38 | 60 | 1012.5 |
| 20260506213802 | 51 | 67 | 1.0 | 4.0 | 0.00 | 1.17 | 0.38 | 62 | 1012.6 |
| 20260506213703 | 51 | 64 | 1.0 | 4.0 | 0.00 | 1.17 | 0.38 | 62 | 1012.6 |
| 20260506213602 | 51 | 66 | 1.0 | 4.0 | 0.00 | 1.17 | 0.38 | 61 | 1012.5 |
| 20260506213502 | 51 | 64 | 2.0 | 4.0 | 0.00 | 1.17 | 0.38 | 60 | 1012.4 |
| 20260506213402 | 51 | 66 | 2.0 | 4.0 | 0.00 | 1.18 | 0.38 | 59 | 1012.6 |
| 20260506213302 | 51 | 67 | 2.0 | 4.0 | 0.00 | 1.18 | 0.38 | 60 | 1012.6 |
| 20260506213102 | 51 | 61 | 2.0 | 4.0 | 0.00 | 1.18 | 0.38 | 62 | 1012.2 |
| 20260506212902 | 51 | 59 | 2.0 | 4.0 | 0.00 | 1.18 | 0.38 | 61 | 1012.5 |
| 20260506212802 | 51 | 58 | 2.0 | 4.0 | 0.00 | 1.19 | 0.38 | 60 | 1012.6 |
| 20260506212602 | 51 | 41 | 2.0 | 6.0 | 0.00 | 1.20 | 0.38 | 60 | 1012.5 |
| 20260506212423 | 51 | 49 | 2.0 | 6.0 | 0.00 | 1.20 | 0.38 | 60 | 1012.4 |
| 20260506212203 | 51 | 48 | 2.0 | 6.0 | 0.00 | 1.20 | 0.38 | 60 | 1012.5 |
| 20260506212102 | 51 | 53 | 2.0 | 6.0 | 0.00 | 1.20 | 0.38 | 62 | 1012.7 |
| 20260506212003 | 51 | 54 | 2.0 | 6.0 | 0.00 | 1.20 | 0.38 | 61 | 1012.5 |
| 20260506211802 | 51 | 53 | 2.0 | 6.0 | 0.00 | 1.21 | 0.38 | 58 | 1012.4 |
| 20260506211623 | 52 | 67 | 2.0 | 6.0 | 0.00 | 1.21 | 0.38 | 57 | 1012.3 |
| 20260506211403 | 52 | 51 | 2.0 | 6.0 | 0.00 | 1.24 | 0.38 | 58 | 1012.4 |
| 20260506211324 | 52 | 52 | 2.0 | 6.0 | 0.00 | 1.28 | 0.38 | 60 | 1012.6 |
| 20260506211102 | 51 | 48 | 2.0 | 7.0 | 0.00 | 1.31 | 0.38 | 57 | 1012.4 |
| 20260506211002 | 51 | 48 | 2.0 | 7.0 | 0.00 | 1.31 | 0.38 | 58 | 1012.5 |
| 20260506210902 | 51 | 37 | 2.0 | 7.0 | 0.00 | 1.32 | 0.38 | 58 | 1012.6 |
| 20260506210724 | 51 | 32 | 3.0 | 7.0 | 0.00 | 1.35 | 0.38 | 58 | 1012.5 |
| 20260506210402 | 52 | 30 | 2.0 | 7.0 | 0.00 | 1.37 | 0.38 | 57 | 1012.3 |
| 20260506210224 | 51 | 27 | 2.0 | 7.0 | 0.00 | 1.38 | 0.38 | 59 | 1012.5 |
| 20260506210002 | 52 | 24 | 2.0 | 7.0 | 0.00 | 1.38 | 0.38 | 57 | 1012.2 |
| 20260506205902 | 52 | 38 | 2.0 | 6.0 | 0.00 | 1.38 | 0.38 | 57 | 1012.3 |
| 20260506205802 | 52 | 34 | 2.0 | 7.0 | 0.00 | 1.38 | 0.38 | 58 | 1012.5 |
| 20260506205502 | 52 | 39 | 2.0 | 7.0 | 0.00 | 1.38 | 0.38 | 57 | 1012.5 |
| 20260506205305 | 52 | 32 | 2.0 | 7.0 | 0.00 | 1.38 | 0.38 | 56 | 1012.5 |
| 20260506205202 | 52 | 39 | 2.0 | 7.0 | 0.00 | 1.38 | 0.38 | 57 | 1012.4 |
| 20260506205102 | 52 | 42 | 2.0 | 7.0 | 0.00 | 1.38 | 0.38 | 59 | 1012.7 |
| 20260506204923 | 51 | 34 | 2.0 | 7.0 | 0.00 | 1.38 | 0.38 | 57 | 1012.4 |
| 20260506204724 | 52 | 36 | 2.0 | 6.0 | 0.00 | 1.38 | 0.38 | 57 | 1012.6 |
| 20260506204124 | 52 | 355 | 3.0 | 6.0 | 0.00 | 1.39 | 0.38 | 57 | 1012.5 |
| 20260506203923 | 52 | 318 | 3.0 | 8.0 | 0.00 | 1.39 | 0.38 | 56 | 1012.7 |
| 20260506203802 | 52 | 306 | 3.0 | 8.0 | 0.00 | 1.40 | 0.38 | 56 | 1012.6 |
| 20260506203702 | 52 | 301 | 3.0 | 8.0 | 0.00 | 1.40 | 0.38 | 56 | 1012.4 |
| 20260506203602 | 52 | 303 | 3.0 | 8.0 | 0.00 | 1.40 | 0.38 | 56 | 1012.5 |
| 20260506203503 | 52 | 305 | 3.0 | 8.0 | 0.00 | 1.40 | 0.38 | 55 | 1012.6 |
| 20260506203402 | 52 | 315 | 3.0 | 8.0 | 0.00 | 1.41 | 0.38 | 56 | 1012.4 |
| 20260506202802 | 52 | 8 | 3.0 | 8.0 | 0.00 | 1.42 | 0.38 | 55 | 1012.2 |
| 20260506202124 | 52 | 354 | 3.0 | 7.0 | 0.00 | 1.43 | 0.38 | 58 | 1012.3 |
| 20260506201702 | 52 | 5 | 3.0 | 7.0 | 0.00 | 1.43 | 0.38 | 54 | 1012.6 |
| 20260506201503 | 52 | 23 | 3.0 | 7.0 | 0.00 | 1.43 | 0.38 | 53 | 1012.6 |
| 20260506201303 | 52 | 27 | 3.0 | 7.0 | 0.00 | 1.43 | 0.38 | 52 | 1012.6 |
| 20260506201124 | 52 | 39 | 3.0 | 6.0 | 0.00 | 1.43 | 0.38 | 53 | 1012.5 |
| 20260506201002 | 52 | 38 | 2.0 | 6.0 | 0.00 | 1.43 | 0.38 | 54 | 1012.6 |
| 20260506200802 | 52 | 30 | 3.0 | 9.0 | 0.00 | 1.43 | 0.38 | 55 | 1012.6 |
| 20260506200602 | 52 | 17 | 3.0 | 11.0 | 0.00 | 1.43 | 0.38 | 53 | 1012.5 |
| 20260506200503 | 52 | 17 | 3.0 | 11.0 | 0.00 | 1.43 | 0.38 | 53 | 1012.6 |
| 20260506200403 | 52 | 21 | 3.0 | 11.0 | 0.00 | 1.43 | 0.38 | 53 | 1012.4 |
| 20260506200324 | 52 | 17 | 3.0 | 11.0 | 0.00 | 1.43 | 0.38 | 53 | 1012.5 |
| 20260506200003 | 52 | 15 | 4.0 | 11.0 | 0.00 | 1.43 | 0.38 | 54 | 1012.6 |
| 20260506195902 | 52 | 15 | 4.0 | 11.0 | 0.00 | 1.43 | 0.38 | 53 | 1012.5 |
| 20260506195823 | 52 | 18 | 3.0 | 11.0 | 0.00 | 1.43 | 0.38 | 53 | 1012.7 |
| 20260506195602 | 52 | 32 | 3.0 | 8.0 | 0.00 | 1.43 | 0.38 | 55 | 1012.6 |
| 20260506195502 | 52 | 42 | 3.0 | 8.0 | 0.00 | 1.43 | 0.38 | 56 | 1012.5 |
| 20260506195305 | 52 | 33 | 3.0 | 8.0 | 0.00 | 1.43 | 0.38 | 54 | 1012.6 |
| 20260506195202 | 52 | 19 | 3.0 | 7.0 | 0.00 | 1.43 | 0.38 | 53 | 1012.7 |
| 20260506195102 | 53 | 28 | 3.0 | 8.0 | 0.00 | 1.43 | 0.38 | 55 | 1012.5 |
| 20260506195002 | 53 | 13 | 3.0 | 8.0 | 0.00 | 1.43 | 0.38 | 52 | 1012.5 |
| 20260506194702 | 53 | 18 | 3.0 | 8.0 | 0.00 | 1.44 | 0.38 | 54 | 1012.4 |
| 20260506194603 | 52 | 18 | 3.0 | 8.0 | 0.00 | 1.44 | 0.38 | 56 | 1012.4 |
| 20260506194403 | 52 | 347 | 4.0 | 11.0 | 0.00 | 1.44 | 0.38 | 54 | 1012.4 |
| 20260506194202 | 52 | 344 | 4.0 | 11.0 | 0.00 | 1.44 | 0.38 | 52 | 1012.4 |
| 20260506194103 | 53 | 335 | 3.0 | 11.0 | 0.00 | 1.44 | 0.38 | 50 | 1012.4 |
| 20260506193902 | 53 | 323 | 3.0 | 11.0 | 0.00 | 1.44 | 0.38 | 50 | 1012.5 |
| 20260506193702 | 53 | 286 | 3.0 | 11.0 | 0.00 | 1.44 | 0.38 | 49 | 1012.5 |
| 20260506193123 | 53 | 273 | 4.0 | 11.0 | 0.00 | 1.44 | 0.38 | 51 | 1012.6 |
| 20260506192702 | 53 | 286 | 4.0 | 11.0 | 0.00 | 1.44 | 0.38 | 50 | 1012.5 |
| 20260506192602 | 53 | 291 | 4.0 | 11.0 | 0.00 | 1.44 | 0.38 | 51 | 1012.6 |
| 20260506192402 | 53 | 296 | 4.0 | 11.0 | 0.00 | 1.44 | 0.38 | 52 | 1012.6 |
| 20260506192102 | 54 | 324 | 4.0 | 11.0 | 0.00 | 1.44 | 0.38 | 52 | 1012.6 |
| 20260506191803 | 53 | 316 | 3.0 | 11.0 | 0.00 | 1.44 | 0.38 | 50 | 1012.6 |
| 20260506191702 | 53 | 312 | 3.0 | 11.0 | 0.00 | 1.44 | 0.38 | 52 | 1012.7 |
| 20260506191603 | 54 | 313 | 3.0 | 11.0 | 0.00 | 1.44 | 0.38 | 54 | 1012.5 |
| 20260506191103 | 55 | 347 | 3.0 | 8.0 | 0.00 | 1.44 | 0.38 | 51 | 1012.7 |
| 20260506190903 | 55 | 18 | 3.0 | 8.0 | 0.00 | 1.45 | 0.38 | 55 | 1012.5 |
| 20260506190703 | 54 | 2 | 4.0 | 10.0 | 0.00 | 1.45 | 0.38 | 55 | 1012.4 |
| 20260506190502 | 54 | 352 | 4.0 | 11.0 | 0.00 | 1.45 | 0.38 | 51 | 1012.5 |
| 20260506190302 | 54 | 349 | 4.0 | 11.0 | 0.00 | 1.45 | 0.38 | 55 | 1012.6 |
| 20260506185902 | 54 | 353 | 4.0 | 11.0 | 0.00 | 1.45 | 0.38 | 54 | 1012.6 |
| 20260506185602 | 53 | 358 | 3.0 | 9.0 | 0.00 | 1.45 | 0.38 | 58 | 1012.7 |
| 20260506185306 | 54 | 345 | 3.0 | 9.0 | 0.00 | 1.45 | 0.38 | 58 | 1012.6 |
| 20260506185202 | 54 | 331 | 3.0 | 8.0 | 0.00 | 1.45 | 0.38 | 58 | 1012.6 |
| 20260506184902 | 53 | 349 | 4.0 | 7.0 | 0.00 | 1.45 | 0.38 | 61 | 1012.6 |
| 20260506184823 | 53 | 352 | 4.0 | 7.0 | 0.00 | 1.45 | 0.38 | 60 | 1012.7 |
| 20260506184523 | 52 | 7 | 4.0 | 9.0 | 0.00 | 1.45 | 0.38 | 62 | 1012.7 |
| 20260506184403 | 52 | 9 | 4.0 | 9.0 | 0.00 | 1.45 | 0.38 | 62 | 1012.6 |
| 20260506184303 | 52 | 5 | 5.0 | 9.0 | 0.00 | 1.45 | 0.38 | 60 | 1012.7 |
| 20260506184102 | 52 | 5 | 5.0 | 9.0 | 0.00 | 1.45 | 0.38 | 62 | 1012.6 |
| 20260506183802 | 53 | 328 | 5.0 | 9.0 | 0.00 | 1.45 | 0.38 | 60 | 1012.7 |
| 20260506183702 | 53 | 316 | 5.0 | 9.0 | 0.00 | 1.45 | 0.38 | 62 | 1012.6 |
| 20260506183402 | 52 | 292 | 5.0 | 9.0 | 0.00 | 1.45 | 0.38 | 62 | 1012.5 |
| 20260506183124 | 52 | 289 | 5.0 | 10.0 | 0.00 | 1.45 | 0.38 | 64 | 1012.8 |
| 20260506182803 | 53 | 320 | 5.0 | 10.0 | 0.00 | 1.45 | 0.38 | 65 | 1012.6 |
| 20260506182703 | 53 | 328 | 4.0 | 11.0 | 0.00 | 1.45 | 0.38 | 65 | 1012.5 |
| 20260506182602 | 53 | 351 | 4.0 | 11.0 | 0.00 | 1.45 | 0.38 | 65 | 1012.6 |
| 20260506182403 | 53 | 339 | 4.0 | 11.0 | 0.00 | 1.45 | 0.38 | 65 | 1012.8 |
| 20260506182202 | 53 | 317 | 4.0 | 11.0 | 0.00 | 1.45 | 0.38 | 64 | 1012.6 |
| 20260506182103 | 53 | 295 | 4.0 | 11.0 | 0.00 | 1.45 | 0.38 | 65 | 1012.7 |
| 20260506182003 | 53 | 289 | 5.0 | 11.0 | 0.00 | 1.45 | 0.38 | 65 | 1012.9 |
| 20260506181602 | 52 | 301 | 5.0 | 13.0 | 0.00 | 1.45 | 0.38 | 66 | 1012.6 |
| 20260506181423 | 52 | 315 | 5.0 | 13.0 | 0.00 | 1.45 | 0.38 | 67 | 1012.6 |
| 20260506181302 | 52 | 321 | 5.0 | 13.0 | 0.00 | 1.45 | 0.38 | 64 | 1012.5 |
| 20260506181102 | 52 | 343 | 5.0 | 13.0 | 0.00 | 1.45 | 0.38 | 63 | 1012.6 |
| 20260506181002 | 52 | 348 | 5.0 | 13.0 | 0.00 | 1.45 | 0.38 | 64 | 1012.5 |
| 20260506180903 | 52 | 355 | 4.0 | 9.0 | 0.00 | 1.45 | 0.38 | 64 | 1012.4 |
| 20260506180602 | 53 | 350 | 4.0 | 9.0 | 0.00 | 1.45 | 0.38 | 63 | 1012.4 |
| 20260506180202 | 52 | 346 | 4.0 | 13.0 | 0.00 | 1.45 | 0.38 | 67 | 1012.8 |
| 20260506180003 | 51 | 335 | 5.0 | 13.0 | 0.00 | 1.45 | 0.38 | 68 | 1012.7 |
| 20260506175902 | 51 | 332 | 5.0 | 13.0 | 0.00 | 1.45 | 0.38 | 68 | 1012.7 |
| 20260506175802 | 51 | 326 | 5.0 | 13.0 | 0.00 | 1.45 | 0.38 | 66 | 1012.6 |
| 20260506175603 | 51 | 322 | 5.0 | 13.0 | 0.00 | 1.45 | 0.38 | 67 | 1012.8 |
| 20260506175103 | 52 | 301 | 5.0 | 13.0 | 0.00 | 1.45 | 0.38 | 67 | 1012.7 |
| 20260506175003 | 52 | 298 | 4.0 | 11.0 | 0.00 | 1.45 | 0.38 | 67 | 1012.5 |
| 20260506174902 | 52 | 309 | 4.0 | 11.0 | 0.00 | 1.45 | 0.38 | 68 | 1012.7 |
| 20260506174623 | 51 | 324 | 5.0 | 11.0 | 0.00 | 1.45 | 0.38 | 69 | 1012.6 |
| 20260506174402 | 51 | 336 | 5.0 | 10.0 | 0.00 | 1.45 | 0.38 | 68 | 1012.2 |
| 20260506174103 | 51 | 358 | 5.0 | 10.0 | 0.00 | 1.45 | 0.38 | 67 | 1012.3 |
| 20260506173902 | 51 | 2 | 5.0 | 10.0 | 0.00 | 1.45 | 0.38 | 67 | 1012.3 |
| 20260506173602 | 51 | 9 | 4.0 | 10.0 | 0.00 | 1.45 | 0.38 | 67 | 1012.2 |
| 20260506173502 | 51 | 16 | 4.0 | 10.0 | 0.00 | 1.45 | 0.38 | 69 | 1012.2 |
| 20260506173324 | 51 | 19 | 4.0 | 8.0 | 0.00 | 1.45 | 0.38 | 67 | 1011.9 |
| 20260506173202 | 52 | 3 | 5.0 | 9.0 | 0.00 | 1.45 | 0.38 | 65 | 1012.3 |
| 20260506173123 | 52 | 357 | 4.0 | 9.0 | 0.00 | 1.45 | 0.38 | 66 | 1012.3 |
| 20260506172902 | 52 | 4 | 4.0 | 9.0 | 0.00 | 1.45 | 0.38 | 69 | 1012.0 |
| 20260506172602 | 52 | 326 | 5.0 | 10.0 | 0.00 | 1.45 | 0.38 | 70 | 1012.3 |
| 20260506172502 | 52 | 310 | 5.0 | 10.0 | 0.00 | 1.45 | 0.38 | 70 | 1012.4 |
| 20260506172402 | 52 | 316 | 5.0 | 11.0 | 0.00 | 1.45 | 0.38 | 68 | 1012.6 |
| 20260506172324 | 52 | 314 | 5.0 | 13.0 | 0.00 | 1.45 | 0.38 | 67 | 1012.4 |
| 20260506172003 | 52 | 289 | 5.0 | 13.0 | 0.00 | 1.45 | 0.38 | 68 | 1012.7 |
| 20260506171803 | 51 | 290 | 6.0 | 13.0 | 0.00 | 1.45 | 0.38 | 68 | 1012.5 |
| 20260506171603 | 51 | 289 | 5.0 | 13.0 | 0.00 | 1.45 | 0.38 | 67 | 1012.7 |
| 20260506171424 | 51 | 287 | 5.0 | 13.0 | 0.00 | 1.45 | 0.38 | 66 | 1012.7 |
| 20260506171303 | 52 | 300 | 5.0 | 13.0 | 0.00 | 1.45 | 0.38 | 68 | 1012.6 |
| 20260506171224 | 52 | 317 | 5.0 | 13.0 | 0.00 | 1.45 | 0.38 | 66 | 1012.6 |
| 20260506171102 | 52 | 337 | 5.0 | 13.0 | 0.00 | 1.45 | 0.38 | 67 | 1012.6 |
| 20260506171003 | 52 | 347 | 4.0 | 11.0 | 0.00 | 1.45 | 0.38 | 68 | 1012.5 |
| 20260506170702 | 52 | 359 | 4.0 | 11.0 | 0.00 | 1.45 | 0.38 | 69 | 1012.6 |
| 20260506170602 | 52 | 7 | 4.0 | 11.0 | 0.00 | 1.45 | 0.38 | 70 | 1012.5 |
| 20260506170524 | 52 | 10 | 5.0 | 11.0 | 0.00 | 1.45 | 0.38 | 70 | 1012.5 |
| 20260506170323 | 52 | 346 | 5.0 | 11.0 | 0.00 | 1.45 | 0.38 | 71 | 1012.5 |
| 20260506165703 | 51 | 314 | 5.0 | 13.0 | 0.00 | 1.45 | 0.38 | 70 | 1012.5 |
| 20260506165503 | 51 | 324 | 5.0 | 13.0 | 0.00 | 1.45 | 0.38 | 69 | 1012.4 |
| 20260506165402 | 52 | 6 | 5.0 | 13.0 | 0.00 | 1.45 | 0.38 | 70 | 1012.6 |
| 20260506165203 | 52 | 16 | 4.0 | 11.0 | 0.00 | 1.45 | 0.38 | 70 | 1012.2 |
| 20260506165102 | 53 | 17 | 4.0 | 11.0 | 0.00 | 1.45 | 0.38 | 68 | 1012.3 |
| 20260506164924 | 52 | 6 | 4.0 | 13.0 | 0.00 | 1.45 | 0.38 | 74 | 1012.2 |
| 20260506164802 | 52 | 359 | 4.0 | 13.0 | 0.00 | 1.45 | 0.38 | 71 | 1012.0 |
| 20260506164403 | 52 | 340 | 4.0 | 13.0 | 0.00 | 1.45 | 0.38 | 72 | 1012.2 |
| 20260506164302 | 51 | 339 | 4.0 | 13.0 | 0.00 | 1.45 | 0.38 | 73 | 1012.3 |
| 20260506164203 | 51 | 341 | 4.0 | 13.0 | 0.00 | 1.45 | 0.38 | 73 | 1012.3 |
| 20260506163923 | 51 | 348 | 4.0 | 9.0 | 0.00 | 1.45 | 0.38 | 73 | 1011.9 |
| 20260506163802 | 51 | 348 | 4.0 | 9.0 | 0.00 | 1.45 | 0.38 | 74 | 1012.2 |
| 20260506163602 | 51 | 351 | 5.0 | 9.0 | 0.00 | 1.45 | 0.38 | 73 | 1012.0 |
| 20260506163002 | 52 | 5 | 4.0 | 8.0 | 0.00 | 1.45 | 0.38 | 71 | 1011.9 |
| 20260506162903 | 51 | 5 | 4.0 | 8.0 | 0.00 | 1.45 | 0.38 | 72 | 1011.9 |
| 20260506162703 | 51 | 358 | 5.0 | 10.0 | 0.00 | 1.45 | 0.38 | 73 | 1011.8 |
| 20260506162403 | 51 | 9 | 5.0 | 10.0 | 0.00 | 1.45 | 0.38 | 73 | 1011.8 |
| 20260506162102 | 50 | 357 | 5.0 | 10.0 | 0.00 | 1.45 | 0.38 | 73 | 1011.9 |
| 20260506161902 | 51 | 349 | 5.0 | 11.0 | 0.00 | 1.45 | 0.38 | 72 | 1011.9 |
| 20260506161803 | 51 | 345 | 5.0 | 11.0 | 0.00 | 1.45 | 0.38 | 72 | 1011.9 |
| 20260506161724 | 51 | 354 | 5.0 | 11.0 | 0.00 | 1.45 | 0.38 | 74 | 1011.8 |
| 20260506161603 | 51 | 10 | 5.0 | 11.0 | 0.00 | 1.45 | 0.38 | 74 | 1011.9 |
| 20260506161503 | 51 | 7 | 5.0 | 11.0 | 0.00 | 1.45 | 0.38 | 74 | 1012.0 |
| 20260506161103 | 53 | 352 | 5.0 | 11.0 | 0.00 | 1.45 | 0.38 | 73 | 1011.7 |
| 20260506161002 | 53 | 354 | 4.0 | 10.0 | 0.00 | 1.45 | 0.38 | 73 | 1011.7 |
| 20260506160824 | 51 | 353 | 5.0 | 10.0 | 0.00 | 1.45 | 0.38 | 75 | 1011.7 |
| 20260506160703 | 51 | 346 | 5.0 | 11.0 | 0.00 | 1.45 | 0.38 | 73 | 1011.7 |
| 20260506160602 | 51 | 333 | 5.0 | 11.0 | 0.00 | 1.45 | 0.38 | 74 | 1011.8 |
| 20260506160202 | 51 | 330 | 5.0 | 11.0 | 0.00 | 1.45 | 0.38 | 73 | 1011.9 |
| 20260506160024 | 51 | 322 | 5.0 | 11.0 | 0.00 | 1.45 | 0.38 | 72 | 1012.0 |
| 20260506155803 | 52 | 321 | 5.0 | 11.0 | 0.00 | 1.45 | 0.38 | 73 | 1011.8 |
| 20260506155503 | 52 | 336 | 4.0 | 10.0 | 0.00 | 1.45 | 0.38 | 73 | 1011.8 |
| 20260506155403 | 52 | 348 | 4.0 | 10.0 | 0.00 | 1.45 | 0.38 | 74 | 1011.7 |
| 20260506155103 | 53 | 351 | 5.0 | 10.0 | 0.00 | 1.45 | 0.38 | 71 | 1011.8 |
| 20260506154723 | 52 | 338 | 5.0 | 10.0 | 0.00 | 1.45 | 0.38 | 74 | 1011.6 |
| 20260506154602 | 52 | 335 | 5.0 | 10.0 | 0.00 | 1.45 | 0.38 | 73 | 1011.5 |
| 20260506154324 | 52 | 328 | 6.0 | 10.0 | 0.00 | 1.45 | 0.38 | 73 | 1011.5 |
| 20260506154103 | 51 | 318 | 6.0 | 10.0 | 0.00 | 1.45 | 0.38 | 73 | 1011.5 |
| 20260506153902 | 51 | 329 | 6.0 | 10.0 | 0.00 | 1.45 | 0.38 | 73 | 1011.5 |
| 20260506153602 | 52 | 346 | 5.0 | 10.0 | 0.00 | 1.45 | 0.38 | 73 | 1011.4 |
| 20260506153424 | 52 | 346 | 5.0 | 10.0 | 0.00 | 1.45 | 0.38 | 72 | 1011.5 |
| 20260506153124 | 52 | 345 | 5.0 | 15.0 | 0.00 | 1.45 | 0.38 | 72 | 1011.1 |
| 20260506152902 | 52 | 341 | 5.0 | 15.0 | 0.00 | 1.45 | 0.38 | 73 | 1010.9 |
| 20260506152802 | 52 | 338 | 5.0 | 15.0 | 0.00 | 1.45 | 0.38 | 73 | 1011.2 |
| 20260506152702 | 51 | 327 | 5.0 | 15.0 | 0.00 | 1.45 | 0.38 | 75 | 1011.2 |
| 20260506152602 | 51 | 322 | 5.0 | 15.0 | 0.00 | 1.45 | 0.38 | 75 | 1011.0 |
| 20260506152403 | 51 | 314 | 5.0 | 15.0 | 0.00 | 1.45 | 0.38 | 75 | 1011.1 |
| 20260506152202 | 51 | 321 | 4.0 | 10.0 | 0.00 | 1.45 | 0.38 | 77 | 1011.0 |
| 20260506152003 | 51 | 341 | 4.0 | 10.0 | 0.00 | 1.45 | 0.38 | 79 | 1011.0 |
| 20260506151903 | 51 | 341 | 4.0 | 10.0 | 0.00 | 1.45 | 0.38 | 78 | 1010.9 |
| 20260506151803 | 51 | 316 | 4.0 | 10.0 | 0.00 | 1.45 | 0.38 | 78 | 1010.9 |
| 20260506151603 | 51 | 338 | 4.0 | 10.0 | 0.00 | 1.45 | 0.38 | 78 | 1010.8 |
| 20260506151424 | 51 | 308 | 4.0 | 10.0 | 0.00 | 1.45 | 0.38 | 77 | 1011.0 |
| 20260506151203 | 51 | 295 | 4.0 | 9.0 | 0.00 | 1.45 | 0.38 | 77 | 1011.0 |
| 20260506151103 | 51 | 266 | 4.0 | 9.0 | 0.00 | 1.45 | 0.38 | 76 | 1010.9 |
| 20260506150903 | 51 | 299 | 5.0 | 9.0 | 0.00 | 1.45 | 0.38 | 75 | 1011.0 |
| 20260506150703 | 51 | 318 | 4.0 | 9.0 | 0.00 | 1.45 | 0.38 | 76 | 1011.0 |
| 20260506150602 | 51 | 319 | 4.0 | 9.0 | 0.00 | 1.45 | 0.38 | 75 | 1011.1 |
| 20260506150503 | 51 | 329 | 4.0 | 9.0 | 0.00 | 1.45 | 0.38 | 75 | 1011.0 |
| 20260506150403 | 51 | 335 | 4.0 | 9.0 | 0.00 | 1.45 | 0.38 | 75 | 1011.1 |
| 20260506145902 | 51 | 349 | 4.0 | 8.0 | 0.00 | 1.45 | 0.38 | 76 | 1010.9 |
| 20260506145503 | 50 | 348 | 4.0 | 9.0 | 0.00 | 1.45 | 0.38 | 76 | 1010.8 |
| 20260506145402 | 50 | 346 | 4.0 | 9.0 | 0.00 | 1.45 | 0.38 | 75 | 1010.9 |
| 20260506145305 | 50 | 342 | 4.0 | 9.0 | 0.00 | 1.45 | 0.38 | 76 | 1010.9 |
| 20260506145103 | 50 | 330 | 4.0 | 9.0 | 0.00 | 1.45 | 0.38 | 76 | 1010.6 |
| 20260506144902 | 50 | 332 | 4.0 | 9.0 | 0.00 | 1.45 | 0.38 | 77 | 1011.0 |
| 20260506144703 | 50 | 332 | 4.0 | 9.0 | 0.00 | 1.45 | 0.38 | 76 | 1010.9 |
| 20260506144602 | 50 | 328 | 4.0 | 9.0 | 0.00 | 1.45 | 0.38 | 77 | 1010.8 |
| 20260506144403 | 50 | 316 | 4.0 | 9.0 | 0.00 | 1.45 | 0.38 | 76 | 1010.7 |
| 20260506144102 | 50 | 292 | 4.0 | 9.0 | 0.00 | 1.45 | 0.38 | 76 | 1010.8 |
| 20260506144003 | 50 | 297 | 4.0 | 9.0 | 0.00 | 1.45 | 0.38 | 78 | 1010.7 |
| 20260506143802 | 49 | 298 | 4.0 | 9.0 | 0.00 | 1.45 | 0.38 | 77 | 1010.7 |
| 20260506143503 | 49 | 298 | 3.0 | 9.0 | 0.00 | 1.45 | 0.38 | 76 | 1010.6 |
| 20260506143403 | 49 | 293 | 3.0 | 9.0 | 0.00 | 1.45 | 0.38 | 76 | 1010.6 |
| 20260506143303 | 50 | 314 | 3.0 | 9.0 | 0.00 | 1.45 | 0.38 | 76 | 1010.6 |
| 20260506143202 | 50 | 326 | 3.0 | 7.0 | 0.00 | 1.45 | 0.38 | 77 | 1010.6 |
| 20260506143103 | 50 | 319 | 3.0 | 7.0 | 0.00 | 1.45 | 0.38 | 78 | 1010.5 |
| 20260506143003 | 50 | 307 | 3.0 | 7.0 | 0.00 | 1.45 | 0.38 | 80 | 1010.4 |
| 20260506142903 | 49 | 309 | 3.0 | 7.0 | 0.00 | 1.45 | 0.38 | 79 | 1010.6 |
| 20260506142824 | 49 | 308 | 2.0 | 7.0 | 0.00 | 1.45 | 0.38 | 80 | 1010.6 |
| 20260506142602 | 49 | 326 | 3.0 | 7.0 | 0.00 | 1.45 | 0.38 | 79 | 1010.6 |
| 20260506142103 | 49 | 14 | 3.0 | 6.0 | 0.00 | 1.45 | 0.38 | 82 | 1010.5 |
| 20260506142002 | 48 | 16 | 3.0 | 6.0 | 0.00 | 1.45 | 0.38 | 82 | 1010.5 |
| 20260506141903 | 48 | 10 | 3.0 | 6.0 | 0.00 | 1.45 | 0.38 | 82 | 1010.6 |
| 20260506141803 | 48 | 12 | 3.0 | 6.0 | 0.00 | 1.45 | 0.38 | 81 | 1010.6 |
| 20260506141603 | 48 | 26 | 3.0 | 6.0 | 0.00 | 1.45 | 0.38 | 82 | 1010.6 |
| 20260506141503 | 48 | 22 | 3.0 | 6.0 | 0.00 | 1.45 | 0.38 | 82 | 1010.6 |
| 20260506141303 | 48 | 12 | 3.0 | 8.0 | 0.00 | 1.45 | 0.38 | 83 | 1010.6 |
| 20260506141103 | 48 | 13 | 3.0 | 8.0 | 0.00 | 1.45 | 0.38 | 85 | 1010.4 |
| 20260506140703 | 47 | 2 | 3.0 | 8.0 | 0.00 | 1.45 | 0.38 | 86 | 1010.5 |
| 20260506140603 | 47 | 354 | 3.0 | 8.0 | 0.00 | 1.45 | 0.38 | 87 | 1010.5 |
| 20260506140003 | 47 | 302 | 3.0 | 6.0 | 0.00 | 1.45 | 0.38 | 91 | 1010.7 |
| 20260506135803 | 47 | 320 | 3.0 | 6.0 | 0.00 | 1.45 | 0.38 | 92 | 1010.7 |
| 20260506135603 | 47 | 314 | 2.0 | 6.0 | 0.00 | 1.45 | 0.38 | 93 | 1010.5 |
| 20260506135423 | 47 | 325 | 2.0 | 7.0 | 0.00 | 1.45 | 0.38 | 94 | 1010.5 |
| 20260506135103 | 47 | 354 | 2.0 | 7.0 | 0.00 | 1.45 | 0.38 | 95 | 1010.6 |
| 20260506135003 | 47 | 18 | 2.0 | 7.0 | 0.00 | 1.45 | 0.38 | 96 | 1010.7 |
| 20260506134924 | 47 | 16 | 2.0 | 7.0 | 0.00 | 1.45 | 0.38 | 96 | 1010.6 |
| 20260506134702 | 46 | 4 | 2.0 | 7.0 | 0.00 | 1.45 | 0.38 | 96 | 1010.7 |
| 20260506134402 | 46 | 355 | 2.0 | 6.0 | 0.00 | 1.45 | 0.38 | 96 | 1010.6 |
| 20260506134303 | 46 | 18 | 1.0 | 4.0 | 0.00 | 1.45 | 0.38 | 96 | 1010.7 |
| 20260506134102 | 46 | 29 | 1.0 | 3.0 | 0.00 | 1.45 | 0.38 | 97 | 1010.4 |
| 20260506133902 | 47 | 57 | 1.0 | 3.0 | 0.00 | 1.45 | 0.38 | 97 | 1010.7 |
| 20260506133503 | 47 | 106 | 1.0 | 3.0 | 0.00 | 1.45 | 0.38 | 97 | 1010.5 |
| 20260506133102 | 46 | 44 | 2.0 | 4.0 | 0.00 | 1.45 | 0.38 | 97 | 1010.5 |
| 20260506133004 | 46 | 34 | 2.0 | 4.0 | 0.00 | 1.45 | 0.38 | 97 | 1010.5 |
| 20260506132803 | 47 | 49 | 1.0 | 4.0 | 0.00 | 1.45 | 0.38 | 97 | 1010.5 |
| 20260506132724 | 47 | 57 | 1.0 | 4.0 | 0.00 | 1.45 | 0.38 | 97 | 1010.4 |
| 20260506132603 | 46 | 50 | 1.0 | 4.0 | 0.00 | 1.45 | 0.38 | 97 | 1010.4 |
| 20260506132403 | 46 | 40 | 1.0 | 4.0 | 0.00 | 1.45 | 0.38 | 97 | 1010.6 |
| 20260506132305 | 46 | 37 | 1.0 | 4.0 | 0.00 | 1.45 | 0.38 | 97 | 1010.4 |
| 20260506131903 | 47 | 93 | 0.0 | 2.0 | 0.00 | 1.45 | 0.38 | 97 | 1010.4 |
| 20260506131803 | 47 | 104 | 1.0 | 2.0 | 0.00 | 1.45 | 0.38 | 97 | 1010.3 |
| 20260506131703 | 47 | 107 | 1.0 | 2.0 | 0.00 | 1.45 | 0.38 | 97 | 1010.3 |
| 20260506131602 | 47 | 113 | 1.0 | 2.0 | 0.00 | 1.45 | 0.38 | 97 | 1010.2 |
| 20260506131303 | 46 | 235 | 1.0 | 4.0 | 0.00 | 1.45 | 0.38 | 98 | 1010.0 |
| 20260506131102 | 46 | 255 | 1.0 | 4.0 | 0.00 | 1.45 | 0.38 | 97 | 1010.0 |
| 20260506131003 | 46 | 274 | 2.0 | 4.0 | 0.00 | 1.45 | 0.38 | 97 | 1010.0 |
| 20260506130902 | 46 | 287 | 2.0 | 4.0 | 0.00 | 1.45 | 0.38 | 97 | 1009.9 |
| 20260506130603 | 46 | 310 | 2.0 | 4.0 | 0.00 | 1.45 | 0.38 | 98 | 1010.0 |
| 20260506130524 | 46 | 296 | 2.0 | 4.0 | 0.00 | 1.45 | 0.38 | 97 | 1010.1 |
| 20260506130303 | 46 | 89 | 2.0 | 4.0 | 0.00 | 1.45 | 0.38 | 98 | 1010.1 |
| 20260506125802 | 46 | 72 | 2.0 | 6.0 | 0.00 | 1.45 | 0.38 | 98 | 1010.0 |
| 20260506125624 | 46 | 77 | 2.0 | 6.0 | 0.00 | 1.45 | 0.38 | 98 | 1009.7 |
| 20260506125503 | 46 | 68 | 2.0 | 6.0 | 0.00 | 1.45 | 0.38 | 98 | 1009.6 |
| 20260506125402 | 46 | 68 | 2.0 | 6.0 | 0.00 | 1.45 | 0.38 | 98 | 1009.7 |
| 20260506125305 | 46 | 66 | 2.0 | 6.0 | 0.00 | 1.45 | 0.38 | 98 | 1009.8 |
| 20260506125103 | 46 | 72 | 2.0 | 6.0 | 0.00 | 1.45 | 0.38 | 98 | 1009.4 |
| 20260506125002 | 46 | 80 | 2.0 | 4.0 | 0.00 | 1.45 | 0.38 | 98 | 1009.5 |
| 20260506124603 | 46 | 77 | 1.0 | 4.0 | 0.00 | 1.45 | 0.38 | 98 | 1009.5 |
| 20260506124303 | 46 | 73 | 1.0 | 3.0 | 0.00 | 1.45 | 0.38 | 98 | 1009.8 |
| 20260506124223 | 46 | 78 | 1.0 | 3.0 | 0.00 | 1.45 | 0.38 | 98 | 1009.8 |
| 20260506124124 | 46 | 77 | 1.0 | 3.0 | 0.00 | 1.45 | 0.38 | 98 | 1009.7 |
| 20260506124003 | 46 | 87 | 1.0 | 3.0 | 0.00 | 1.45 | 0.38 | 98 | 1009.7 |
| 20260506123924 | 46 | 87 | 1.0 | 3.0 | 0.00 | 1.45 | 0.38 | 98 | 1009.5 |
| 20260506123602 | 46 | 89 | 1.0 | 3.0 | 0.00 | 1.45 | 0.38 | 98 | 1009.6 |
| 20260506123503 | 46 | 101 | 1.0 | 3.0 | 0.00 | 1.45 | 0.38 | 98 | 1009.6 |
| 20260506123402 | 46 | 104 | 1.0 | 3.0 | 0.00 | 1.45 | 0.38 | 98 | 1009.6 |
| 20260506123324 | 46 | 110 | 1.0 | 3.0 | 0.00 | 1.45 | 0.38 | 98 | 1009.7 |
| 20260506123103 | 46 | 114 | 0.0 | 3.0 | 0.00 | 1.45 | 0.38 | 98 | 1009.6 |
| 20260506123002 | 46 | 97 | 0.0 | 3.0 | 0.00 | 1.45 | 0.38 | 98 | 1009.5 |
| 20260506122902 | 46 | 97 | 0.0 | 3.0 | 0.00 | 1.45 | 0.38 | 98 | 1009.5 |
| 20260506122603 | 46 | 89 | 0.0 | 3.0 | 0.00 | 1.45 | 0.38 | 98 | 1009.7 |
| 20260506122402 | 46 | 90 | 0.0 | 3.0 | 0.00 | 1.45 | 0.38 | 98 | 1009.8 |
| 20260506122305 | 45 | 94 | 0.0 | 2.0 | 0.00 | 1.45 | 0.38 | 98 | 1009.8 |
| 20260506122103 | 45 | 104 | 0.0 | 2.0 | 0.00 | 1.45 | 0.38 | 98 | 1009.8 |
| 20260506122002 | 45 | 104 | 0.0 | 2.0 | 0.00 | 1.45 | 0.38 | 98 | 1009.8 |
| 20260506121924 | 45 | 104 | 0.0 | 2.0 | 0.00 | 1.45 | 0.38 | 98 | 1009.5 |
| 20260506121703 | 45 | 89 | 0.0 | 2.0 | 0.00 | 1.45 | 0.38 | 98 | 1009.7 |
| 20260506121603 | 45 | 87 | 0.0 | 2.0 | 0.00 | 1.45 | 0.38 | 98 | 1009.7 |
| 20260506121302 | 45 | 92 | 0.0 | 2.0 | 0.00 | 1.45 | 0.38 | 98 | 1009.5 |
| 20260506121103 | 45 | 102 | 1.0 | 2.0 | 0.00 | 1.45 | 0.38 | 98 | 1009.6 |
| 20260506121003 | 45 | 102 | 1.0 | 2.0 | 0.00 | 1.45 | 0.38 | 98 | 1009.6 |
| 20260506120904 | 45 | 104 | 0.0 | 2.0 | 0.00 | 1.45 | 0.38 | 98 | 1009.5 |
| 20260506120702 | 45 | 156 | 0.0 | 2.0 | 0.00 | 1.45 | 0.38 | 98 | 1009.7 |
| 20260506120303 | 45 | 210 | 0.0 | 2.0 | 0.00 | 1.45 | 0.38 | 98 | 1009.6 |
| 20260506120124 | 45 | 0 | 0.0 | 0.0 | 0.00 | 1.45 | 0.38 | 98 | 1009.5 |
| 20260506120024 | 45 | 0 | 0.0 | 0.0 | 0.00 | 1.45 | 0.38 | 98 | 1009.6 |
| 20260506115924 | 45 | 0 | 0.0 | 0.0 | 0.00 | 1.45 | 0.38 | 98 | 1009.7 |
| 20260506115502 | 45 | 0 | 0.0 | 0.0 | 0.00 | 1.45 | 0.38 | 98 | 1009.5 |
| 20260506115306 | 45 | 0 | 0.0 | 0.0 | 0.00 | 1.45 | 0.38 | 98 | 1009.4 |
| 20260506115202 | 45 | 0 | 0.0 | 0.0 | 0.00 | 1.45 | 0.38 | 98 | 1009.5 |
| 20260506115103 | 45 | 0 | 0.0 | 0.0 | 0.00 | 1.45 | 0.38 | 98 | 1009.4 |
| 20260506115003 | 45 | 0 | 0.0 | 0.0 | 0.00 | 1.45 | 0.38 | 98 | 1009.5 |
| 20260506114924 | 45 | 0 | 0.0 | 0.0 | 0.00 | 1.45 | 0.38 | 98 | 1009.4 |
| 20260506114602 | 44 | 0 | 0.0 | 0.0 | 0.00 | 1.45 | 0.38 | 98 | 1009.4 |
| 20260506114502 | 44 | 0 | 0.0 | 0.0 | 0.00 | 1.45 | 0.38 | 98 | 1009.4 |
| 20260506114203 | 44 | 0 | 0.0 | 0.0 | 0.00 | 1.45 | 0.38 | 98 | 1009.2 |
| 20260506114002 | 45 | 0 | 0.0 | 0.0 | 0.00 | 1.45 | 0.38 | 98 | 1009.2 |
| 20260506113603 | 45 | 0 | 0.0 | 0.0 | 0.00 | 1.45 | 0.38 | 98 | 1009.4 |
| 20260506113102 | 45 | 0 | 0.0 | 0.0 | 0.00 | 1.45 | 0.38 | 98 | 1009.2 |
| 20260506113003 | 45 | 0 | 0.0 | 0.0 | 0.00 | 1.45 | 0.38 | 98 | 1009.1 |
| 20260506112924 | 44 | 0 | 0.0 | 0.0 | 0.00 | 1.45 | 0.38 | 98 | 1009.2 |
| 20260506112803 | 44 | 0 | 0.0 | 0.0 | 0.00 | 1.45 | 0.38 | 98 | 1009.1 |
| 20260506112703 | 44 | 0 | 0.0 | 0.0 | 0.00 | 1.45 | 0.38 | 98 | 1009.1 |
| 20260506112403 | 44 | 0 | 0.0 | 0.0 | 0.00 | 1.45 | 0.38 | 98 | 1009.0 |
| 20260506111803 | 44 | 0 | 0.0 | 0.0 | 0.00 | 1.45 | 0.38 | 98 | 1008.8 |
| 20260506110603 | 44 | 68 | 1.0 | 3.0 | 0.00 | 1.45 | 0.38 | 98 | 1009.0 |
| 20260506110502 | 44 | 63 | 1.0 | 3.0 | 0.00 | 1.45 | 0.38 | 98 | 1008.7 |
| 20260506105903 | 44 | 57 | 1.0 | 3.0 | 0.00 | 1.45 | 0.38 | 98 | 1008.3 |
| 20260506105602 | 44 | 90 | 0.0 | 3.0 | 0.00 | 1.45 | 0.38 | 98 | 1008.5 |
| 20260506105503 | 44 | 103 | 1.0 | 3.0 | 0.00 | 1.45 | 0.38 | 98 | 1008.3 |
| 20260506105403 | 44 | 88 | 1.0 | 3.0 | 0.00 | 1.45 | 0.38 | 98 | 1008.2 |
| 20260506105003 | 44 | 77 | 2.0 | 6.0 | 0.00 | 1.45 | 0.38 | 98 | 1008.6 |
| 20260506104603 | 44 | 54 | 2.0 | 6.0 | 0.00 | 1.45 | 0.38 | 98 | 1008.8 |
| 20260506104403 | 44 | 51 | 2.0 | 6.0 | 0.00 | 1.45 | 0.38 | 98 | 1008.7 |
| 20260506104103 | 44 | 50 | 2.0 | 6.0 | 0.01 | 1.45 | 0.38 | 98 | 1008.5 |
| 20260506104024 | 44 | 49 | 2.0 | 6.0 | 0.01 | 1.45 | 0.38 | 98 | 1008.7 |
| 20260506103903 | 44 | 53 | 2.0 | 6.0 | 0.01 | 1.45 | 0.38 | 98 | 1008.3 |
| 20260506103803 | 44 | 57 | 2.0 | 6.0 | 0.01 | 1.45 | 0.38 | 98 | 1008.5 |
| 20260506103603 | 44 | 70 | 2.0 | 6.0 | 0.01 | 1.45 | 0.38 | 98 | 1008.5 |
| 20260506103003 | 44 | 92 | 1.0 | 2.0 | 0.02 | 1.45 | 0.38 | 98 | 1008.6 |
| 20260506102802 | 44 | 79 | 1.0 | 2.0 | 0.02 | 1.45 | 0.38 | 98 | 1008.3 |
| 20260506102703 | 44 | 77 | 0.0 | 2.0 | 0.02 | 1.45 | 0.38 | 98 | 1008.3 |
| 20260506102503 | 44 | 86 | 0.0 | 2.0 | 0.03 | 1.45 | 0.38 | 98 | 1008.0 |
| 20260506102402 | 44 | 58 | 0.0 | 2.0 | 0.03 | 1.45 | 0.38 | 98 | 1008.0 |
| 20260506102103 | 44 | 76 | 0.0 | 2.0 | 0.03 | 1.45 | 0.38 | 98 | 1007.8 |
| 20260506102002 | 44 | 84 | 0.0 | 2.0 | 0.04 | 1.45 | 0.38 | 98 | 1007.6 |
| 20260506101403 | 44 | 88 | 0.0 | 2.0 | 0.04 | 1.45 | 0.38 | 98 | 1007.7 |
| 20260506101003 | 44 | 78 | 0.0 | 3.0 | 0.05 | 1.45 | 0.38 | 98 | 1007.4 |
| 20260506100903 | 44 | 82 | 1.0 | 3.0 | 0.05 | 1.45 | 0.38 | 98 | 1007.3 |
| 20260506100603 | 44 | 83 | 1.0 | 3.0 | 0.05 | 1.45 | 0.38 | 98 | 1007.5 |
| 20260506100403 | 44 | 74 | 1.0 | 4.0 | 0.05 | 1.45 | 0.38 | 98 | 1007.5 |
| 20260506100303 | 44 | 80 | 1.0 | 4.0 | 0.05 | 1.45 | 0.38 | 98 | 1007.8 |
| 20260506095902 | 44 | 51 | 2.0 | 6.0 | 0.06 | 1.45 | 0.38 | 98 | 1007.9 |
| 20260506095403 | 44 | 22 | 3.0 | 8.0 | 0.06 | 1.45 | 0.38 | 98 | 1008.3 |
| 20260506095305 | 44 | 17 | 3.0 | 8.0 | 0.06 | 1.45 | 0.38 | 98 | 1008.5 |
| 20260506095024 | 44 | 9 | 3.0 | 8.0 | 0.06 | 1.45 | 0.38 | 98 | 1008.3 |
| 20260506094602 | 45 | 346 | 2.0 | 9.0 | 0.06 | 1.45 | 0.38 | 98 | 1008.3 |
| 20260506094303 | 45 | 323 | 1.0 | 9.0 | 0.06 | 1.45 | 0.38 | 98 | 1008.5 |
| 20260506093703 | 45 | 92 | 0.0 | 2.0 | 0.05 | 1.44 | 0.37 | 98 | 1008.7 |
| 20260506093624 | 45 | 107 | 0.0 | 2.0 | 0.05 | 1.44 | 0.37 | 98 | 1008.5 |
| 20260506093503 | 45 | 107 | 0.0 | 2.0 | 0.05 | 1.44 | 0.37 | 98 | 1008.8 |
| 20260506093303 | 45 | 107 | 0.0 | 2.0 | 0.05 | 1.44 | 0.37 | 98 | 1008.6 |
| 20260506093224 | 45 | 106 | 0.0 | 2.0 | 0.05 | 1.44 | 0.37 | 98 | 1008.7 |
| 20260506093123 | 45 | 103 | 0.0 | 2.0 | 0.04 | 1.43 | 0.36 | 98 | 1008.7 |
| 20260506093003 | 45 | 103 | 0.0 | 2.0 | 0.04 | 1.43 | 0.36 | 98 | 1008.8 |
| 20260506092503 | 45 | 87 | 0.0 | 1.0 | 0.04 | 1.42 | 0.35 | 98 | 1008.7 |
| 20260506092402 | 45 | 87 | 0.0 | 1.0 | 0.04 | 1.42 | 0.35 | 98 | 1008.7 |
| 20260506092202 | 45 | 0 | 0.0 | 0.0 | 0.05 | 1.42 | 0.35 | 98 | 1008.7 |
| 20260506092103 | 45 | 0 | 0.0 | 0.0 | 0.05 | 1.42 | 0.35 | 98 | 1008.5 |
| 20260506091803 | 45 | 0 | 0.0 | 0.0 | 0.04 | 1.41 | 0.34 | 98 | 1008.3 |
| 20260506091603 | 45 | 0 | 0.0 | 0.0 | 0.05 | 1.41 | 0.34 | 98 | 1008.2 |
| 20260506091503 | 45 | 0 | 0.0 | 0.0 | 0.05 | 1.41 | 0.34 | 98 | 1008.2 |
| 20260506091424 | 45 | 91 | 0.0 | 1.0 | 0.05 | 1.41 | 0.34 | 98 | 1008.5 |
| 20260506091105 | 45 | 87 | 0.0 | 1.0 | 0.05 | 1.40 | 0.33 | 98 | 1008.3 |
| 20260506090505 | 45 | 87 | 0.0 | 1.0 | 0.06 | 1.40 | 0.33 | 98 | 1008.5 |
| 20260506090303 | 45 | 117 | 0.0 | 1.0 | 0.06 | 1.40 | 0.33 | 98 | 1008.2 |
| 20260506090003 | 45 | 107 | 0.0 | 1.0 | 0.05 | 1.39 | 0.32 | 98 | 1007.9 |
| 20260506085903 | 45 | 101 | 0.0 | 1.0 | 0.05 | 1.39 | 0.32 | 98 | 1008.1 |
| 20260506085703 | 45 | 101 | 0.0 | 1.0 | 0.06 | 1.39 | 0.32 | 98 | 1008.0 |
| 20260506085603 | 45 | 101 | 0.0 | 1.0 | 0.06 | 1.39 | 0.32 | 98 | 1008.2 |
| 20260506085524 | 45 | 101 | 0.0 | 1.0 | 0.06 | 1.39 | 0.32 | 98 | 1008.2 |
| 20260506085403 | 45 | 100 | 0.0 | 1.0 | 0.06 | 1.39 | 0.32 | 98 | 1008.0 |
| 20260506085305 | 45 | 94 | 0.0 | 1.0 | 0.06 | 1.39 | 0.32 | 98 | 1008.1 |
| 20260506085203 | 45 | 90 | 0.0 | 1.0 | 0.06 | 1.39 | 0.32 | 98 | 1007.7 |
| 20260506085103 | 45 | 90 | 0.0 | 1.0 | 0.06 | 1.39 | 0.32 | 98 | 1007.6 |
| 20260506084803 | 45 | 72 | 1.0 | 3.0 | 0.07 | 1.39 | 0.32 | 98 | 1007.9 |
| 20260506084603 | 45 | 57 | 1.0 | 4.0 | 0.07 | 1.39 | 0.32 | 98 | 1007.8 |
| 20260506084403 | 45 | 56 | 1.0 | 4.0 | 0.07 | 1.39 | 0.32 | 98 | 1007.8 |
| 20260506084203 | 45 | 54 | 1.0 | 4.0 | 0.07 | 1.39 | 0.32 | 98 | 1007.8 |
| 20260506083902 | 45 | 50 | 1.0 | 4.0 | 0.08 | 1.39 | 0.32 | 98 | 1008.0 |
| 20260506083824 | 45 | 50 | 1.0 | 4.0 | 0.08 | 1.39 | 0.32 | 98 | 1007.6 |
| 20260506083603 | 45 | 77 | 0.0 | 2.0 | 0.08 | 1.39 | 0.32 | 98 | 1007.9 |
| 20260506083302 | 45 | 85 | 0.0 | 3.0 | 0.08 | 1.39 | 0.32 | 98 | 1008.1 |
| 20260506083203 | 45 | 85 | 0.0 | 3.0 | 0.08 | 1.39 | 0.32 | 98 | 1008.2 |
| 20260506083102 | 45 | 86 | 0.0 | 3.0 | 0.08 | 1.39 | 0.32 | 98 | 1008.3 |
| 20260506082802 | 45 | 67 | 1.0 | 3.0 | 0.08 | 1.38 | 0.31 | 98 | 1008.5 |
| 20260506082703 | 45 | 65 | 1.0 | 3.0 | 0.08 | 1.38 | 0.31 | 98 | 1008.1 |
| 20260506082603 | 45 | 65 | 1.0 | 3.0 | 0.08 | 1.38 | 0.31 | 98 | 1008.1 |
| 20260506082403 | 45 | 60 | 1.0 | 3.0 | 0.08 | 1.38 | 0.31 | 98 | 1008.2 |
| 20260506082103 | 45 | 58 | 1.0 | 3.0 | 0.08 | 1.37 | 0.30 | 98 | 1008.5 |
| 20260506081503 | 45 | 87 | 0.0 | 2.0 | 0.07 | 1.36 | 0.29 | 98 | 1008.3 |
| 20260506081303 | 45 | 86 | 0.0 | 2.0 | 0.08 | 1.36 | 0.29 | 98 | 1008.6 |
| 20260506081102 | 45 | 74 | 0.0 | 2.0 | 0.07 | 1.35 | 0.28 | 98 | 1008.7 |
| 20260506081002 | 45 | 69 | 0.0 | 2.0 | 0.07 | 1.35 | 0.28 | 98 | 1008.6 |
| 20260506080903 | 45 | 67 | 0.0 | 2.0 | 0.07 | 1.35 | 0.28 | 98 | 1008.6 |
| 20260506080803 | 45 | 62 | 0.0 | 2.0 | 0.07 | 1.35 | 0.28 | 98 | 1008.5 |
| 20260506080702 | 45 | 56 | 0.0 | 2.0 | 0.07 | 1.35 | 0.28 | 98 | 1008.5 |
| 20260506080524 | 45 | 46 | 0.0 | 2.0 | 0.06 | 1.34 | 0.27 | 98 | 1008.5 |
| 20260506073524 | 45 | 80 | 1.0 | 3.0 | 0.05 | 1.31 | 0.24 | 98 | 1008.2 |
| 20260506073403 | 45 | 79 | 1.0 | 3.0 | 0.05 | 1.31 | 0.24 | 98 | 1008.2 |
| 20260506073324 | 45 | 79 | 1.0 | 3.0 | 0.05 | 1.31 | 0.24 | 98 | 1008.2 |
| 20260506073203 | 45 | 76 | 1.0 | 3.0 | 0.05 | 1.31 | 0.24 | 98 | 1008.1 |
| 20260506073103 | 45 | 78 | 1.0 | 3.0 | 0.05 | 1.31 | 0.24 | 98 | 1008.0 |
| 20260506072803 | 45 | 78 | 1.0 | 3.0 | 0.04 | 1.30 | 0.23 | 98 | 1008.0 |
| 20260506072703 | 45 | 77 | 1.0 | 3.0 | 0.04 | 1.30 | 0.23 | 98 | 1008.0 |
| 20260506072603 | 45 | 80 | 1.0 | 3.0 | 0.04 | 1.30 | 0.23 | 97 | 1008.0 |
| 20260506072503 | 45 | 85 | 1.0 | 2.0 | 0.04 | 1.30 | 0.23 | 98 | 1007.8 |
| 20260506072103 | 45 | 87 | 0.0 | 1.0 | 0.03 | 1.29 | 0.22 | 97 | 1008.1 |
| 20260506071903 | 45 | 90 | 0.0 | 2.0 | 0.04 | 1.29 | 0.22 | 98 | 1007.7 |
| 20260506071703 | 45 | 94 | 1.0 | 2.0 | 0.04 | 1.29 | 0.22 | 98 | 1008.0 |
| 20260506071603 | 45 | 93 | 1.0 | 2.0 | 0.04 | 1.29 | 0.22 | 98 | 1008.1 |
| 20260506071503 | 45 | 93 | 1.0 | 2.0 | 0.04 | 1.29 | 0.22 | 97 | 1008.0 |
| 20260506071203 | 45 | 93 | 1.0 | 2.0 | 0.04 | 1.28 | 0.21 | 97 | 1007.8 |
| 20260506071124 | 45 | 94 | 1.0 | 2.0 | 0.04 | 1.28 | 0.21 | 97 | 1007.9 |
| 20260506070724 | 45 | 93 | 0.0 | 1.0 | 0.05 | 1.28 | 0.21 | 97 | 1008.0 |
| 20260506070503 | 45 | 78 | 0.0 | 2.0 | 0.05 | 1.28 | 0.21 | 97 | 1008.1 |
| 20260506070403 | 45 | 74 | 0.0 | 2.0 | 0.06 | 1.28 | 0.21 | 97 | 1007.9 |
| 20260506062503 | 45 | 84 | 0.0 | 2.0 | 0.11 | 1.26 | 0.19 | 97 | 1008.0 |
| 20260506062103 | 45 | 79 | 0.0 | 2.0 | 0.11 | 1.26 | 0.19 | 97 | 1008.2 |
| 20260506062003 | 45 | 79 | 0.0 | 2.0 | 0.10 | 1.25 | 0.18 | 97 | 1008.2 |
| 20260506061924 | 45 | 80 | 0.0 | 2.0 | 0.10 | 1.25 | 0.18 | 97 | 1008.2 |
| 20260506061703 | 45 | 83 | 0.0 | 2.0 | 0.10 | 1.25 | 0.18 | 97 | 1008.1 |
| 20260506061103 | 45 | 93 | 0.0 | 3.0 | 0.09 | 1.24 | 0.17 | 97 | 1008.1 |
| 20260506060903 | 45 | 93 | 0.0 | 3.0 | 0.10 | 1.24 | 0.17 | 97 | 1008.1 |
| 20260506060703 | 45 | 94 | 0.0 | 3.0 | 0.09 | 1.23 | 0.16 | 97 | 1008.1 |
| 20260506060603 | 45 | 95 | 0.0 | 3.0 | 0.09 | 1.23 | 0.16 | 97 | 1008.0 |
| 20260506060403 | 45 | 83 | 0.0 | 3.0 | 0.08 | 1.22 | 0.15 | 97 | 1008.1 |
| 20260506060224 | 45 | 79 | 0.0 | 2.0 | 0.08 | 1.22 | 0.15 | 97 | 1008.0 |
| 20260506051203 | 46 | 67 | 1.0 | 3.0 | 0.06 | 1.15 | 0.08 | 98 | 1008.5 |
| 20260506051103 | 46 | 65 | 1.0 | 3.0 | 0.06 | 1.15 | 0.08 | 98 | 1008.7 |
| 20260506051003 | 46 | 64 | 1.0 | 3.0 | 0.05 | 1.14 | 0.07 | 98 | 1008.7 |
| 20260506050903 | 46 | 63 | 1.0 | 3.0 | 0.05 | 1.14 | 0.07 | 98 | 1008.7 |
| 20260506050803 | 46 | 68 | 1.0 | 3.0 | 0.06 | 1.14 | 0.07 | 98 | 1008.7 |
| 20260506050503 | 46 | 80 | 1.0 | 2.0 | 0.06 | 1.14 | 0.07 | 98 | 1008.7 |
| 20260506050403 | 46 | 70 | 1.0 | 3.0 | 0.06 | 1.14 | 0.07 | 98 | 1008.8 |
| 20260506050203 | 46 | 72 | 1.0 | 3.0 | 0.07 | 1.14 | 0.07 | 98 | 1008.7 |
| 20260506045103 | 47 | 58 | 1.0 | 4.0 | 0.07 | 1.13 | 0.06 | 98 | 1009.0 |
| 20260506045003 | 47 | 59 | 1.0 | 4.0 | 0.07 | 1.13 | 0.06 | 98 | 1008.8 |
| 20260506044903 | 47 | 58 | 1.0 | 4.0 | 0.07 | 1.13 | 0.06 | 98 | 1008.8 |
| 20260506044803 | 47 | 57 | 2.0 | 7.0 | 0.08 | 1.13 | 0.06 | 98 | 1008.9 |
| 20260506044703 | 47 | 49 | 2.0 | 7.0 | 0.08 | 1.13 | 0.06 | 98 | 1008.9 |
| 20260506044603 | 47 | 50 | 2.0 | 7.0 | 0.08 | 1.13 | 0.06 | 98 | 1008.8 |
| 20260506044503 | 47 | 49 | 2.0 | 7.0 | 0.08 | 1.13 | 0.06 | 98 | 1008.9 |
| 20260506044403 | 47 | 52 | 2.0 | 7.0 | 0.08 | 1.13 | 0.06 | 98 | 1008.8 |
| 20260506044303 | 47 | 56 | 2.0 | 7.0 | 0.08 | 1.13 | 0.06 | 98 | 1008.7 |
| 20260506044103 | 47 | 66 | 2.0 | 7.0 | 0.08 | 1.12 | 0.05 | 98 | 1008.7 |
| 20260506043703 | 47 | 66 | 1.0 | 7.0 | 0.08 | 1.12 | 0.05 | 98 | 1008.9 |
| 20260506043624 | 47 | 65 | 1.0 | 7.0 | 0.08 | 1.12 | 0.05 | 98 | 1008.9 |
| 20260506043503 | 47 | 63 | 1.0 | 7.0 | 0.09 | 1.12 | 0.05 | 98 | 1008.7 |
| 20260506043303 | 47 | 46 | 1.0 | 7.0 | 0.09 | 1.12 | 0.05 | 98 | 1008.7 |
| 20260506043203 | 47 | 41 | 1.0 | 7.0 | 0.09 | 1.12 | 0.05 | 98 | 1008.7 |
| 20260506043103 | 47 | 31 | 2.0 | 7.0 | 0.08 | 1.11 | 0.04 | 98 | 1008.8 |
| 20260506042902 | 48 | 37 | 2.0 | 6.0 | 0.08 | 1.11 | 0.04 | 98 | 1009.0 |
| 20260506042603 | 48 | 38 | 2.0 | 6.0 | 0.09 | 1.11 | 0.04 | 98 | 1008.8 |
| 20260506042403 | 48 | 40 | 2.0 | 6.0 | 0.09 | 1.11 | 0.04 | 98 | 1008.9 |
| 20260506042003 | 48 | 53 | 1.0 | 4.0 | 0.09 | 1.10 | 0.03 | 98 | 1008.9 |
| 20260506041802 | 48 | 65 | 1.0 | 3.0 | 0.09 | 1.10 | 0.03 | 98 | 1009.1 |
| 20260506041624 | 48 | 73 | 1.0 | 3.0 | 0.09 | 1.10 | 0.03 | 98 | 1008.9 |
| 20260506041302 | 48 | 81 | 1.0 | 4.0 | 0.10 | 1.10 | 0.03 | 98 | 1009.1 |
| 20260506041103 | 48 | 84 | 1.0 | 4.0 | 0.09 | 1.09 | 0.02 | 98 | 1009.0 |
| 20260506040903 | 48 | 89 | 1.0 | 4.0 | 0.09 | 1.09 | 0.02 | 98 | 1009.1 |
| 20260506040703 | 48 | 89 | 1.0 | 4.0 | 0.09 | 1.08 | 0.01 | 98 | 1009.2 |
| 20260506040624 | 48 | 92 | 1.0 | 4.0 | 0.09 | 1.08 | 0.01 | 98 | 1009.1 |
| 20260506040502 | 48 | 91 | 1.0 | 4.0 | 0.09 | 1.08 | 0.01 | 98 | 1009.2 |
| 20260506040424 | 48 | 93 | 0.0 | 4.0 | 0.09 | 1.08 | 0.01 | 98 | 1009.2 |
| 20260506035924 | 48 | 93 | 1.0 | 2.0 | 0.09 | 1.07 | 1.07 | 98 | 1009.2 |
| 20260506035703 | 48 | 89 | 1.0 | 2.0 | 0.10 | 1.07 | 1.07 | 98 | 1009.3 |
| 20260506035603 | 48 | 85 | 1.0 | 2.0 | 0.09 | 1.06 | 1.06 | 98 | 1009.3 |
| 20260506035503 | 48 | 79 | 1.0 | 3.0 | 0.09 | 1.06 | 1.06 | 98 | 1009.3 |
| 20260506035103 | 48 | 78 | 1.0 | 3.0 | 0.10 | 1.06 | 1.06 | 98 | 1009.3 |
| 20260506035003 | 48 | 77 | 1.0 | 3.0 | 0.10 | 1.06 | 1.06 | 98 | 1009.3 |
| 20260506034802 | 48 | 74 | 1.0 | 3.0 | 0.10 | 1.05 | 1.05 | 98 | 1009.3 |
| 20260506034603 | 48 | 80 | 1.0 | 3.0 | 0.10 | 1.05 | 1.05 | 98 | 1009.4 |
| 20260506034503 | 48 | 76 | 1.0 | 6.0 | 0.11 | 1.05 | 1.05 | 98 | 1009.4 |
| 20260506034103 | 48 | 67 | 1.0 | 6.0 | 0.11 | 1.04 | 1.04 | 98 | 1009.3 |
| 20260506033803 | 48 | 63 | 1.0 | 6.0 | 0.12 | 1.04 | 1.04 | 98 | 1009.2 |
| 20260506033603 | 48 | 58 | 1.0 | 6.0 | 0.12 | 1.04 | 1.04 | 98 | 1009.3 |
| 20260506033502 | 48 | 57 | 1.0 | 6.0 | 0.11 | 1.03 | 1.03 | 98 | 1009.2 |
| 20260506033303 | 48 | 57 | 1.0 | 3.0 | 0.12 | 1.03 | 1.03 | 98 | 1009.4 |
| 20260506033103 | 48 | 63 | 1.0 | 3.0 | 0.12 | 1.03 | 1.03 | 98 | 1009.4 |
| 20260506032803 | 48 | 73 | 1.0 | 3.0 | 0.13 | 1.03 | 1.03 | 98 | 1009.2 |
| 20260506032603 | 48 | 72 | 1.0 | 3.0 | 0.13 | 1.02 | 1.02 | 98 | 1009.3 |
| 20260506032403 | 48 | 84 | 1.0 | 3.0 | 0.14 | 1.02 | 1.02 | 98 | 1009.5 |
| 20260506032305 | 48 | 84 | 1.0 | 3.0 | 0.14 | 1.02 | 1.02 | 98 | 1009.5 |
| 20260506032124 | 48 | 81 | 1.0 | 3.0 | 0.13 | 1.01 | 1.02 | 98 | 1009.4 |
| 20260506032003 | 49 | 73 | 0.0 | 3.0 | 0.14 | 1.01 | 1.01 | 98 | 1009.4 |
| 20260506031803 | 49 | 66 | 0.0 | 3.0 | 0.14 | 1.01 | 1.01 | 98 | 1009.3 |
| 20260506031603 | 49 | 0 | 0.0 | 0.0 | 0.15 | 1.01 | 1.01 | 98 | 1009.5 |
| 20260506031503 | 49 | 0 | 0.0 | 0.0 | 0.15 | 1.01 | 1.01 | 98 | 1009.6 |
| 20260506031403 | 49 | 0 | 0.0 | 0.0 | 0.15 | 1.01 | 1.01 | 98 | 1009.6 |
| 20260506031303 | 49 | 0 | 0.0 | 0.0 | 0.14 | 1.00 | 1.00 | 98 | 1009.7 |
| 20260506031102 | 49 | 0 | 0.0 | 0.0 | 0.15 | 1.00 | 1.00 | 98 | 1009.6 |
| 20260506030903 | 49 | 0 | 0.0 | 0.0 | 0.15 | 1.00 | 1.00 | 98 | 1009.5 |
| 20260506030403 | 49 | 0 | 0.0 | 0.0 | 0.15 | 0.99 | 0.99 | 98 | 1009.7 |
| 20260506030303 | 49 | 0 | 0.0 | 0.0 | 0.15 | 0.98 | 0.98 | 98 | 1009.8 |
| 20260506025903 | 49 | 0 | 0.0 | 0.0 | 0.16 | 0.98 | 0.98 | 98 | 1009.6 |
| 20260506025703 | 49 | 0 | 0.0 | 0.0 | 0.15 | 0.97 | 0.97 | 98 | 1009.7 |
| 20260506025602 | 49 | 0 | 0.0 | 0.0 | 0.16 | 0.97 | 0.97 | 97 | 1009.7 |
| 20260506025403 | 49 | 0 | 0.0 | 0.0 | 0.15 | 0.96 | 0.96 | 97 | 1009.5 |
| 20260506025103 | 49 | 0 | 0.0 | 0.0 | 0.16 | 0.96 | 0.96 | 97 | 1009.4 |
| 20260506025003 | 49 | 0 | 0.0 | 0.0 | 0.17 | 0.96 | 0.96 | 97 | 1009.6 |
| 20260506024903 | 49 | 0 | 0.0 | 0.0 | 0.16 | 0.95 | 0.95 | 97 | 1009.4 |
| 20260506024702 | 49 | 0 | 0.0 | 0.0 | 0.17 | 0.95 | 0.95 | 97 | 1009.3 |
| 20260506024603 | 49 | 0 | 0.0 | 0.0 | 0.17 | 0.95 | 0.95 | 97 | 1009.5 |
| 20260506024103 | 49 | 0 | 0.0 | 0.0 | 0.17 | 0.93 | 0.93 | 97 | 1009.2 |
| 20260506024003 | 49 | 0 | 0.0 | 0.0 | 0.17 | 0.93 | 0.93 | 97 | 1009.2 |
| 20260506023503 | 49 | 0 | 0.0 | 0.0 | 0.18 | 0.92 | 0.92 | 97 | 1009.1 |
| 20260506023303 | 49 | 0 | 0.0 | 0.0 | 0.17 | 0.91 | 0.91 | 97 | 1009.1 |
| 20260506023103 | 49 | 0 | 0.0 | 0.0 | 0.18 | 0.91 | 0.91 | 97 | 1009.1 |
| 20260506022903 | 49 | 0 | 0.0 | 0.0 | 0.17 | 0.90 | 0.90 | 97 | 1009.2 |
| 20260506022603 | 49 | 0 | 0.0 | 0.0 | 0.17 | 0.89 | 0.89 | 97 | 1009.1 |
| 20260506022305 | 49 | 0 | 0.0 | 0.0 | 0.17 | 0.88 | 0.88 | 97 | 1009.1 |
| 20260506022124 | 49 | 91 | 0.0 | 1.0 | 0.18 | 0.88 | 0.88 | 97 | 1009.0 |
| 20260506021803 | 49 | 91 | 0.0 | 1.0 | 0.18 | 0.87 | 0.87 | 97 | 1009.0 |
| 20260506021603 | 49 | 91 | 0.0 | 1.0 | 0.17 | 0.86 | 0.86 | 97 | 1009.0 |
| 20260506021503 | 49 | 91 | 0.0 | 1.0 | 0.18 | 0.86 | 0.86 | 97 | 1009.0 |
| 20260506021403 | 49 | 91 | 0.0 | 1.0 | 0.18 | 0.86 | 0.86 | 97 | 1009.0 |
| 20260506021103 | 49 | 0 | 0.0 | 0.0 | 0.18 | 0.85 | 0.85 | 97 | 1008.9 |
| 20260506020803 | 49 | 0 | 0.0 | 0.0 | 0.19 | 0.85 | 0.85 | 97 | 1008.8 |
| 20260506020624 | 49 | 91 | 0.0 | 1.0 | 0.18 | 0.84 | 0.84 | 97 | 1008.7 |
| 20260506020503 | 49 | 85 | 0.0 | 1.0 | 0.18 | 0.84 | 0.84 | 97 | 1008.9 |
| 20260506020403 | 49 | 85 | 0.0 | 1.0 | 0.18 | 0.84 | 0.84 | 97 | 1008.9 |
| 20260506020024 | 49 | 88 | 0.0 | 1.0 | 0.17 | 0.82 | 0.83 | 97 | 1008.9 |
| 20260506015903 | 49 | 89 | 0.0 | 1.0 | 0.18 | 0.82 | 0.82 | 97 | 1008.9 |
| 20260506015503 | 49 | 99 | 0.0 | 1.0 | 0.18 | 0.81 | 0.81 | 97 | 1009.1 |
| 20260506015224 | 49 | 96 | 0.0 | 1.0 | 0.18 | 0.80 | 0.80 | 97 | 1009.1 |
| 20260506015103 | 49 | 93 | 0.0 | 1.0 | 0.18 | 0.80 | 0.80 | 97 | 1009.1 |
| 20260506014924 | 49 | 92 | 0.0 | 1.0 | 0.18 | 0.79 | 0.79 | 97 | 1008.9 |
| 20260506014703 | 49 | 92 | 0.0 | 1.0 | 0.17 | 0.78 | 0.78 | 97 | 1008.8 |
| 20260506014603 | 49 | 92 | 0.0 | 1.0 | 0.17 | 0.78 | 0.78 | 97 | 1008.9 |
| 20260506014403 | 49 | 101 | 0.0 | 1.0 | 0.16 | 0.77 | 0.77 | 97 | 1009.0 |
| 20260506014303 | 49 | 95 | 0.0 | 1.0 | 0.16 | 0.77 | 0.77 | 97 | 1008.8 |
| 20260506014124 | 49 | 95 | 0.0 | 1.0 | 0.15 | 0.76 | 0.76 | 97 | 1009.0 |
| 20260506013903 | 49 | 96 | 0.0 | 1.0 | 0.16 | 0.76 | 0.76 | 97 | 1009.1 |
| 20260506013603 | 49 | 91 | 0.0 | 1.0 | 0.15 | 0.75 | 0.75 | 97 | 1009.1 |
| 20260506013403 | 49 | 83 | 0.0 | 1.0 | 0.14 | 0.74 | 0.74 | 97 | 1008.9 |
| 20260506013124 | 49 | 90 | 0.0 | 1.0 | 0.13 | 0.73 | 0.73 | 97 | 1008.9 |
| 20260506012803 | 49 | 84 | 0.0 | 2.0 | 0.13 | 0.73 | 0.73 | 97 | 1008.8 |
| 20260506012703 | 49 | 92 | 0.0 | 2.0 | 0.12 | 0.72 | 0.72 | 97 | 1009.0 |
| 20260506012603 | 49 | 104 | 1.0 | 2.0 | 0.12 | 0.72 | 0.72 | 97 | 1008.8 |
| 20260506012403 | 49 | 117 | 1.0 | 2.0 | 0.12 | 0.72 | 0.72 | 97 | 1008.8 |
| 20260506012307 | 49 | 116 | 1.0 | 2.0 | 0.11 | 0.71 | 0.71 | 97 | 1008.9 |
| 20260506012102 | 49 | 108 | 1.0 | 3.0 | 0.10 | 0.70 | 0.70 | 97 | 1008.7 |
| 20260506012003 | 49 | 94 | 1.0 | 3.0 | 0.10 | 0.70 | 0.70 | 97 | 1008.8 |
| 20260506011824 | 49 | 187 | 2.0 | 4.0 | 0.09 | 0.69 | 0.69 | 97 | 1009.0 |
| 20260506011703 | 49 | 250 | 2.0 | 4.0 | 0.09 | 0.69 | 0.69 | 97 | 1009.1 |
| 20260506011603 | 49 | 258 | 2.0 | 4.0 | 0.09 | 0.69 | 0.69 | 97 | 1008.8 |
| 20260506011503 | 49 | 258 | 1.0 | 4.0 | 0.08 | 0.68 | 0.68 | 97 | 1008.8 |
| 20260506011403 | 49 | 260 | 2.0 | 4.0 | 0.08 | 0.68 | 0.68 | 97 | 1008.6 |
| 20260506011303 | 49 | 266 | 2.0 | 4.0 | 0.08 | 0.68 | 0.68 | 97 | 1008.3 |
| 20260506011103 | 49 | 257 | 2.0 | 4.0 | 0.07 | 0.67 | 0.67 | 97 | 1008.8 |
| 20260506011003 | 49 | 244 | 2.0 | 4.0 | 0.07 | 0.67 | 0.67 | 97 | 1009.1 |
| 20260506010903 | 49 | 200 | 1.0 | 4.0 | 0.06 | 0.66 | 0.66 | 97 | 1008.9 |
| 20260506010603 | 49 | 96 | 1.0 | 3.0 | 0.06 | 0.66 | 0.66 | 97 | 1008.5 |
| 20260506010403 | 49 | 91 | 1.0 | 3.0 | 0.06 | 0.66 | 0.66 | 97 | 1008.9 |
| 20260506010303 | 49 | 92 | 1.0 | 3.0 | 0.06 | 0.66 | 0.66 | 97 | 1008.7 |
| 20260506010203 | 49 | 89 | 0.0 | 2.0 | 0.05 | 0.65 | 0.65 | 97 | 1008.8 |
| 20260506005903 | 49 | 85 | 0.0 | 1.0 | 0.04 | 0.64 | 0.64 | 97 | 1008.5 |
| 20260506005803 | 49 | 82 | 0.0 | 1.0 | 0.04 | 0.64 | 0.64 | 97 | 1008.5 |
| 20260506005403 | 49 | 0 | 0.0 | 0.0 | 0.04 | 0.63 | 0.63 | 97 | 1008.6 |
| 20260506005124 | 49 | 0 | 0.0 | 0.0 | 0.03 | 0.62 | 0.62 | 97 | 1008.6 |
| 20260506005003 | 49 | 0 | 0.0 | 0.0 | 0.04 | 0.62 | 0.62 | 97 | 1008.5 |
| 20260506004803 | 49 | 0 | 0.0 | 0.0 | 0.03 | 0.61 | 0.61 | 97 | 1008.5 |
| 20260506004103 | 49 | 0 | 0.0 | 0.0 | 0.05 | 0.61 | 0.61 | 97 | 1008.3 |
| 20260506004024 | 49 | 0 | 0.0 | 0.0 | 0.05 | 0.61 | 0.61 | 97 | 1008.5 |
| 20260506003724 | 49 | 0 | 0.0 | 0.0 | 0.04 | 0.60 | 0.60 | 97 | 1008.3 |
| 20260506003603 | 49 | 0 | 0.0 | 0.0 | 0.05 | 0.60 | 0.60 | 97 | 1008.7 |
| 20260506003303 | 49 | 0 | 0.0 | 0.0 | 0.05 | 0.60 | 0.60 | 97 | 1008.5 |
| 20260506003203 | 49 | 0 | 0.0 | 0.0 | 0.05 | 0.60 | 0.60 | 97 | 1008.5 |
| 20260506003103 | 49 | 0 | 0.0 | 0.0 | 0.06 | 0.60 | 0.60 | 97 | 1008.5 |
| 20260506002903 | 49 | 0 | 0.0 | 0.0 | 0.06 | 0.60 | 0.60 | 97 | 1008.5 |
| 20260506002803 | 48 | 0 | 0.0 | 0.0 | 0.06 | 0.60 | 0.60 | 97 | 1008.5 |
| 20260506002624 | 48 | 0 | 0.0 | 0.0 | 0.07 | 0.60 | 0.60 | 97 | 1008.5 |
| 20260506002403 | 48 | 0 | 0.0 | 0.0 | 0.07 | 0.60 | 0.60 | 97 | 1008.5 |
| 20260506001803 | 48 | 95 | 0.0 | 1.0 | 0.09 | 0.60 | 0.60 | 97 | 1008.5 |
| 20260506001503 | 48 | 90 | 0.0 | 2.0 | 0.10 | 0.60 | 0.60 | 97 | 1008.5 |
| 20260506001403 | 48 | 90 | 0.0 | 2.0 | 0.10 | 0.60 | 0.60 | 97 | 1008.5 |
| 20260506000824 | 48 | 82 | 0.0 | 2.0 | 0.13 | 0.60 | 0.60 | 97 | 1008.3 |
| 20260506000703 | 48 | 82 | 0.0 | 2.0 | 0.14 | 0.60 | 0.60 | 96 | 1008.2 |
| 20260506000603 | 48 | 73 | 0.0 | 2.0 | 0.16 | 0.60 | 0.60 | 96 | 1008.5 |
| 20260506000303 | 49 | 101 | 0.0 | 1.0 | 0.20 | 0.60 | 0.60 | 97 | 1008.3 |
| 20260506000124 | 48 | 101 | 0.0 | 1.0 | 0.21 | 0.60 | 0.60 | 97 | 1008.5 |
| 20260506000003 | 48 | 104 | 0.0 | 1.0 | 0.22 | 0.60 | 0.60 | 96 | 1008.2 |
| 20260505235724 | 48 | 100 | 0.0 | 1.0 | 0.23 | 0.60 | 0.60 | 96 | 1008.3 |
| 20260505235603 | 48 | 100 | 0.0 | 1.0 | 0.22 | 0.59 | 0.59 | 96 | 1008.6 |
| 20260505235503 | 48 | 101 | 0.0 | 1.0 | 0.22 | 0.59 | 0.59 | 96 | 1008.5 |
| 20260505235305 | 48 | 59 | 0.0 | 4.0 | 0.22 | 0.59 | 0.59 | 96 | 1008.5 |
| 20260505235103 | 48 | 50 | 1.0 | 4.0 | 0.23 | 0.59 | 0.59 | 96 | 1008.7 |
| 20260505235003 | 48 | 56 | 1.0 | 4.0 | 0.22 | 0.58 | 0.58 | 96 | 1008.5 |
| 20260505234624 | 48 | 48 | 1.0 | 4.0 | 0.22 | 0.58 | 0.58 | 96 | 1008.6 |
| 20260505234403 | 48 | 45 | 1.0 | 4.0 | 0.21 | 0.57 | 0.57 | 96 | 1008.7 |
| 20260505234303 | 48 | 52 | 1.0 | 4.0 | 0.22 | 0.57 | 0.57 | 96 | 1008.7 |
| 20260505233503 | 48 | 68 | 1.0 | 3.0 | 0.20 | 0.55 | 0.55 | 96 | 1008.7 |
| 20260505233203 | 48 | 64 | 1.0 | 3.0 | 0.20 | 0.55 | 0.55 | 96 | 1008.8 |
| 20260505233103 | 48 | 69 | 1.0 | 6.0 | 0.19 | 0.54 | 0.54 | 96 | 1008.6 |
| 20260505232924 | 48 | 61 | 1.0 | 6.0 | 0.19 | 0.54 | 0.54 | 96 | 1008.5 |
| 20260505232603 | 48 | 62 | 1.0 | 6.0 | 0.19 | 0.53 | 0.53 | 96 | 1008.9 |
| 20260505232524 | 48 | 62 | 1.0 | 6.0 | 0.19 | 0.53 | 0.53 | 96 | 1008.3 |
| 20260505231903 | 48 | 44 | 2.0 | 6.0 | 0.18 | 0.51 | 0.51 | 96 | 1008.9 |
| 20260505231003 | 49 | 15 | 3.0 | 7.0 | 0.16 | 0.48 | 0.49 | 96 | 1008.8 |
| 20260505230803 | 49 | 11 | 3.0 | 8.0 | 0.15 | 0.47 | 0.47 | 96 | 1008.9 |
| 20260505230603 | 49 | 12 | 3.0 | 8.0 | 0.12 | 0.44 | 0.44 | 96 | 1009.0 |
| 20260505230124 | 49 | 19 | 3.0 | 8.0 | 0.07 | 0.39 | 0.39 | 96 | 1008.8 |
| 20260505230024 | 49 | 22 | 3.0 | 8.0 | 0.06 | 0.38 | 0.39 | 96 | 1008.9 |
| 20260505225903 | 49 | 23 | 3.0 | 7.0 | 0.06 | 0.38 | 0.38 | 96 | 1008.7 |
| 20260505225703 | 49 | 40 | 2.0 | 7.0 | 0.05 | 0.37 | 0.37 | 96 | 1008.6 |
| 20260505225403 | 49 | 49 | 2.0 | 7.0 | 0.06 | 0.37 | 0.37 | 96 | 1008.5 |
| 20260505225103 | 49 | 34 | 2.0 | 7.0 | 0.06 | 0.36 | 0.36 | 96 | 1008.6 |
| 20260505225024 | 50 | 38 | 2.0 | 7.0 | 0.06 | 0.36 | 0.36 | 96 | 1008.5 |
| 20260505224903 | 50 | 39 | 2.0 | 7.0 | 0.06 | 0.36 | 0.36 | 96 | 1008.2 |
| 20260505224803 | 50 | 41 | 2.0 | 7.0 | 0.06 | 0.36 | 0.36 | 96 | 1008.6 |
| 20260505224103 | 50 | 44 | 2.0 | 7.0 | 0.06 | 0.35 | 0.35 | 96 | 1008.3 |
| 20260505224003 | 50 | 42 | 2.0 | 7.0 | 0.06 | 0.35 | 0.35 | 96 | 1008.5 |
| 20260505223903 | 50 | 48 | 2.0 | 7.0 | 0.07 | 0.35 | 0.35 | 96 | 1008.5 |
| 20260505223703 | 50 | 49 | 2.0 | 7.0 | 0.07 | 0.35 | 0.35 | 96 | 1008.3 |
| 20260505223503 | 50 | 56 | 2.0 | 7.0 | 0.07 | 0.35 | 0.35 | 96 | 1008.7 |
| 20260505222603 | 51 | 30 | 2.0 | 6.0 | 0.09 | 0.34 | 0.34 | 96 | 1008.7 |
| 20260505222503 | 51 | 30 | 2.0 | 6.0 | 0.09 | 0.34 | 0.34 | 96 | 1008.5 |
| 20260505222424 | 51 | 31 | 2.0 | 6.0 | 0.09 | 0.34 | 0.34 | 96 | 1008.6 |
| 20260505222203 | 51 | 38 | 2.0 | 4.0 | 0.08 | 0.33 | 0.33 | 95 | 1008.6 |
| 20260505222103 | 51 | 46 | 2.0 | 4.0 | 0.08 | 0.33 | 0.33 | 96 | 1008.5 |
| 20260505221803 | 51 | 55 | 1.0 | 4.0 | 0.09 | 0.33 | 0.33 | 95 | 1008.5 |
| 20260505221603 | 51 | 63 | 1.0 | 3.0 | 0.09 | 0.33 | 0.33 | 95 | 1008.5 |
| 20260505221103 | 51 | 87 | 1.0 | 4.0 | 0.18 | 0.32 | 0.32 | 95 | 1008.3 |
| 20260505220903 | 51 | 86 | 1.0 | 4.0 | 0.19 | 0.32 | 0.32 | 95 | 1008.6 |
| 20260505220603 | 51 | 68 | 1.0 | 4.0 | 0.23 | 0.32 | 0.32 | 95 | 1008.6 |